Wind_Speed
17 17 16 17 17 17 16 14 14 14 14 14 15 16 15 15 15 15 16 17 16 16 16 16 15 14 14 15 14 15 15 16 17 16 15 15 15 15 15 14 14 12 11 10 9 9 9 8 8 8 8 8 8 8 7 7 7 7 7 6 5 5 4 4 4 4 4 4 4 4 5 5 4 5 5 6 8 9 9 9 10 9 9 8 8
17 16 16 16 16 15 14 12 12 12 12 13 14 15 15 14 14 15 16 16 16 15 16 16 15 14 14 14 14 14 15 16 17 16 16 16 16 16 16 16 14 13 11 10 9 9 9 9 9 9 9 9 8 8 8 7 7 7 6 5 5 4 4 4 4 4 4 5 4 4 4 4 4 5 7 8 8 9 9 9 9 9 9 8 8
17 14 15 15 14 13 12 11 11 11 11 13 14 15 14 13 14 14 15 15 15 15 15 15 14 13 14 14 13 14 15 16 16 16 16 16 17 17 17 16 15 13 11 10 9 9 10 10 10 10 10 9 9 8 8 8 7 7 6 5 5 4 4 4 4 4 4 5 5 4 4 4 5 6 7 8 9 9 9 9 9 9 9 9 9
14 13 14 13 12 11 10 10 9 10 11 12 14 14 14 13 13 14 14 14 14 14 14 14 13 13 13 13 13 13 15 16 16 15 16 16 17 18 18 17 15 14 12 11 10 10 10 11 11 11 11 10 9 9 8 7 7 7 5 5 4 4 4 4 4 4 4 4 4 4 4 4 5 6 8 8 9 9 9 9 9 9 9 9 9
12 13 13 12 10 8 8 8 8 9 11 12 13 13 13 13 13 13 14 14 14 13 13 12 12 13 13 14 13 13 14 15 16 16 16 16 17 18 18 17 16 14 13 12 11 11 11 11 11 11 11 11 10 9 8 8 7 6 5 4 4 4 4 4 4 4 4 4 4 3 4 5 6 7 8 8 9 9 9 9 9 9 9 9 8
11 12 11 9 8 7 7 7 8 9 10 12 12 13 13 13 13 13 13 13 14 13 13 12 12 13 13 14 13 13 14 16 16 16 16 17 17 18 18 18 16 14 13 12 12 12 12 12 12 12 11 11 10 9 8 7 6 5 4 4 3 3 4 4 4 4 4 3 3 4 4 5 6 7 8 8 8 8 8 8 8 8 8 8 8
10 10 9 8 6 6 6 7 7 9 10 12 12 12 13 13 13 13 13 13 14 13 13 12 12 13 14 14 14 14 15 16 16 17 17 17 18 18 18 18 17 15 13 13 12 12 13 12 12 12 11 11 10 10 9 7 5 4 4 3 3 3 3 3 3 4 3 3 4 3 4 5 6 7 8 8 8 8 8 8 8 8 8 8 8
8 8 8 6 6 5 6 7 7 9 10 11 12 12 13 13 13 13 14 13 14 13 13 13 13 14 14 14 14 14 15 16 17 17 17 18 18 18 18 18 18 16 13 13 13 13 14 14 13 13 12 11 11 10 9 7 5 4 3 3 2 2 3 3 3 3 3 3 3 3 4 6 6 7 7 8 8 8 8 8 8 8 8 8 8
7 7 7 6 5 6 6 6 7 9 10 11 12 12 13 13 13 14 14 14 14 13 13 13 14 15 15 15 15 15 16 17 17 17 18 18 18 18 18 18 18 17 15 13 13 14 15 15 14 13 12 12 11 10 9 7 4 3 3 2 2 2 3 3 3 3 3 2 2 3 4 5 6 7 8 8 8 8 8 8 8 8 8 8 8
7 7 7 6 6 6 6 6 7 9 10 11 12 12 13 13 13 14 14 14 14 13 13 14 14 15 15 15 15 15 16 17 17 18 18 18 18 18 18 18 18 18 16 14 13 13 14 15 15 14 13 12 11 11 10 8 5 2 2 2 1 2 3 3 3 3 3 3 3 3 4 5 6 7 8 9 9 9 8 8 8 8 8 8 8
7 7 7 6 7 6 6 6 7 9 9 10 11 12 12 13 13 13 14 14 14 13 13 13 14 15 15 16 16 16 16 17 18 18 18 19 18 18 17 17 18 18 17 15 13 13 14 15 15 15 14 12 12 11 11 9 6 3 2 1 1 1 2 3 4 5 5 5 5 4 4 5 6 7 8 8 8 8 8 8 8 9 9 8 8
7 7 7 7 7 6 6 7 8 8 9 10 10 11 11 12 13 13 13 13 13 13 13 13 14 15 16 17 17 16 17 18 19 19 19 19 19 18 17 17 18 18 17 16 14 13 13 14 15 15 15 13 12 12 11 10 8 5 4 3 3 4 4 5 6 7 7 7 6 5 5 5 6 7 8 7 8 8 8 9 9 9 9 8 8
7 8 8 7 7 7 7 7 8 9 9 9 10 10 11 11 12 13 13 13 13 13 13 14 14 15 16 17 17 17 18 19 19 19 20 20 20 19 18 17 17 17 18 17 16 14 13 14 15 16 15 14 13 12 11 11 9 7 6 5 5 6 6 7 7 7 8 8 7 6 6 6 6 7 7 7 7 8 9 9 9 9 9 9 9
8 9 8 7 7 7 8 8 9 9 9 9 9 9 10 11 11 12 12 13 13 13 14 14 14 15 16 17 18 18 18 19 20 20 20 21 21 20 19 18 18 17 17 17 16 15 14 14 15 15 16 15 13 12 12 11 10 8 7 7 7 7 7 7 7 7 7 8 8 8 7 6 6 7 7 7 7 8 9 9 10 10 10 10 10
9 9 8 8 8 9 9 9 10 10 10 10 9 9 10 10 11 11 12 12 13 14 14 14 15 15 16 17 18 18 19 19 20 20 20 20 21 21 20 19 18 18 17 17 16 15 14 14 14 15 16 15 14 13 12 12 11 10 8 7 7 7 7 7 7 7 7 8 8 8 8 7 7 7 6 6 7 8 9 9 10 10 11 11 11
10 9 9 9 9 10 10 11 11 11 11 10 10 10 10 10 11 11 11 12 13 14 14 15 15 16 16 16 17 18 19 19 20 21 21 21 21 21 21 20 19 18 18 17 16 15 14 14 14 15 16 16 15 13 13 13 12 11 9 7 7 7 7 6 7 7 8 8 8 8 9 8 8 7 6 6 7 8 9 10 10 11 11 12 12
10 10 10 10 10 11 12 12 12 12 12 12 11 10 10 10 11 11 12 12 13 14 15 16 16 16 16 17 17 18 19 19 20 21 22 22 22 21 21 21 20 18 18 18 16 14 14 14 15 15 16 16 15 14 13 13 13 12 10 8 7 7 7 7 7 8 8 8 8 8 9 9 8 8 7 7 8 9 10 10 11 11 12 12 13
11 11 11 11 11 13 14 14 14 14 13 13 12 11 11 11 12 12 13 13 14 15 16 16 16 17 17 17 17 18 19 19 20 21 22 23 23 22 22 21 21 19 19 19 16 14 13 14 15 15 16 15 15 14 13 13 13 13 11 10 8 7 7 7 7 8 8 8 8 9 9 9 9 8 7 7 9 10 10 11 11 12 13 13 13
12 12 12 12 13 15 15 16 16 16 15 15 13 13 13 13 13 13 14 14 15 16 17 17 17 17 17 18 18 18 19 20 20 21 23 24 25 24 23 22 21 20 19 19 17 14 13 14 15 15 15 15 15 14 14 13 13 13 12 11 9 8 7 7 8 8 8 8 9 9 9 9 8 8 7 8 9 10 11 11 11 12 13 14 14
12 13 13 14 16 17 18 18 18 18 17 16 15 15 15 14 15 15 15 15 16 17 17 18 18 18 18 18 19 19 20 20 21 21 23 25 26 25 24 22 21 20 20 19 17 14 13 14 14 15 15 14 15 15 14 14 13 13 13 11 10 8 7 7 8 8 9 10 10 9 9 8 7 7 7 8 9 10 11 11 12 12 13 14 14
12 13 15 16 18 19 20 21 21 21 19 18 17 17 17 16 16 16 16 17 17 18 18 18 18 18 18 19 19 19 20 21 21 21 23 24 25 24 24 23 21 20 19 19 17 15 14 14 14 15 15 14 15 15 15 15 14 13 13 12 10 9 8 7 8 9 9 11 11 11 10 9 8 7 7 8 9 10 11 12 12 13 13 14 14
13 14 16 18 19 22 24 25 25 23 21 20 20 19 19 18 18 18 18 18 19 20 19 18 17 17 18 19 19 19 20 21 21 21 21 22 23 23 24 24 22 20 19 18 18 16 15 14 14 15 15 14 14 15 16 15 14 14 13 12 10 9 8 7 9 10 10 11 12 12 12 11 10 9 8 9 9 9 10 11 12 13 14 14 15
15 16 18 19 23 27 29 29 27 24 22 22 21 21 21 20 20 20 20 21 21 21 20 18 17 18 19 19 19 20 21 21 22 21 19 19 20 22 24 24 24 22 19 17 17 17 16 15 14 15 16 14 14 15 16 16 15 15 14 12 10 9 8 7 8 11 10 10 12 12 12 12 11 10 10 10 9 9 10 11 11 13 14 15 15
17 18 20 23 27 29 27 25 23 22 24 24 23 23 24 23 23 23 23 23 22 21 18 15 15 18 19 20 20 20 22 23 24 21 19 18 18 20 23 24 25 24 21 18 16 16 16 15 15 17 16 14 13 15 16 15 14 15 15 13 10 9 9 7 8 11 11 10 11 12 12 12 12 11 11 10 9 10 11 11 11 13 14 15 14
18 19 24 28 29 26 21 19 20 22 25 26 26 25 26 25 24 23 22 22 22 19 14 12 15 17 19 20 19 20 22 25 25 22 21 19 18 19 20 22 24 25 24 20 17 16 16 16 17 18 17 14 13 14 14 14 14 15 15 14 11 10 10 7 7 11 11 10 11 11 12 12 11 11 11 10 9 9 10 11 11 13 14 14 13
19 22 28 29 27 24 19 20 24 24 24 25 25 25 24 23 20 18 19 18 16 14 13 13 15 17 19 19 19 20 23 26 26 24 23 21 20 19 18 20 22 25 25 23 20 17 16 16 17 19 18 15 12 13 14 14 14 15 15 15 12 10 10 8 7 11 12 11 11 11 11 11 11 11 11 10 9 9 9 10 11 12 13 13 12
23 26 28 25 23 21 19 22 25 21 19 21 21 19 19 20 18 17 17 16 14 13 14 15 16 17 18 18 19 21 23 26 27 26 25 23 24 22 18 19 22 24 25 24 23 20 18 16 16 18 18 15 12 13 14 14 14 14 15 15 13 11 11 9 7 11 12 11 11 12 11 11 11 11 11 10 9 9 9 10 11 11 12 12 12
26 26 24 22 21 19 20 23 24 21 20 21 17 14 17 19 20 20 20 19 18 17 16 16 16 18 19 19 20 22 22 24 26 25 24 23 24 22 20 22 24 25 26 24 23 22 20 18 17 16 17 15 13 13 14 14 14 14 16 15 13 11 10 9 8 9 13 13 11 11 11 10 10 10 10 10 9 10 10 10 10 10 11 11 11
25 24 22 21 20 19 21 23 24 23 22 20 18 17 19 20 22 22 21 20 19 19 18 17 19 21 22 22 22 22 22 23 24 23 23 22 23 23 23 25 25 27 28 25 22 21 21 20 18 16 16 15 14 14 14 14 14 14 16 16 13 11 10 10 8 8 11 14 12 11 11 10 9 9 10 9 9 10 10 10 10 10 10 10 10
22 22 23 22 21 21 24 24 24 24 23 22 22 22 21 20 22 21 20 20 19 20 21 21 22 24 25 24 23 23 24 24 24 25 25 24 25 26 25 25 25 27 29 26 22 20 20 20 18 16 16 15 15 15 14 14 14 14 17 17 13 11 11 10 9 7 9 13 12 11 11 9 8 9 9 9 9 10 10 10 10 10 10 9 9
21 22 24 25 24 25 26 25 25 25 25 24 23 23 22 21 22 21 20 21 21 22 24 24 24 25 26 27 26 25 26 26 26 27 27 26 27 27 26 24 25 27 26 24 23 21 20 19 18 17 17 17 16 16 16 14 14 15 17 17 14 12 11 10 9 7 9 12 12 11 10 9 8 8 8 8 9 9 10 10 9 10 10 9 9
20 22 26 26 25 27 28 26 26 27 26 26 24 24 24 24 24 23 23 23 22 22 24 26 25 27 28 28 28 28 27 26 26 27 28 28 27 26 25 24 25 28 24 20 22 21 20 20 19 18 18 20 18 17 17 15 15 17 17 18 15 13 12 10 9 8 9 11 12 10 9 8 8 9 8 8 8 9 9 9 9 9 9 9 9
22 23 26 26 25 27 27 27 27 25 25 25 24 23 23 24 24 24 24 23 22 22 25 26 26 27 28 29 29 28 26 25 24 24 25 26 26 26 25 25 26 28 25 20 20 20 22 23 21 19 19 21 20 17 17 16 16 17 17 18 16 15 13 11 10 9 9 10 11 10 9 8 9 9 8 8 8 8 9 9 8 8 8 8 9
23 24 25 24 24 25 25 24 24 23 22 21 21 22 22 23 24 24 25 23 23 24 26 27 27 27 28 29 28 27 25 23 22 21 22 23 24 25 25 26 25 26 26 21 19 19 22 25 22 19 18 19 20 18 18 17 16 17 17 17 17 16 14 12 11 10 10 10 10 10 9 8 8 8 8 7 7 8 9 8 8 8 8 8 8
23 24 25 24 24 24 24 22 22 21 20 19 19 21 21 21 21 22 23 24 25 25 27 28 29 28 28 29 28 26 24 23 21 20 22 22 22 23 24 24 24 24 25 21 19 20 22 24 22 19 17 17 18 19 19 19 17 16 16 17 17 17 15 13 12 11 11 10 9 9 9 9 9 9 8 7 7 8 8 8 7 7 7 7 7
23 24 23 22 22 22 24 23 21 20 19 18 18 18 19 19 20 21 22 24 25 25 27 29 30 29 28 29 29 26 24 22 21 21 22 23 23 24 24 24 23 23 24 23 21 20 22 24 23 19 16 16 17 19 20 19 17 16 16 16 16 17 16 14 13 12 12 11 10 10 9 9 10 9 8 7 7 7 8 8 8 7 7 7 7
21 22 20 18 19 21 23 22 21 19 17 16 15 16 16 17 19 20 21 23 24 24 26 27 28 28 28 29 28 26 24 23 21 21 22 23 25 26 26 23 22 23 23 24 24 22 22 24 22 18 16 16 16 19 19 18 17 16 16 17 16 16 16 15 14 13 13 12 11 10 9 9 9 9 8 8 7 7 8 8 8 8 8 7 7
18 17 17 18 20 20 20 18 17 15 13 12 12 14 14 15 16 18 21 22 22 22 23 24 26 28 28 27 26 25 24 23 22 22 22 23 25 26 25 22 21 22 22 23 24 22 21 20 19 18 18 18 18 17 18 18 17 16 17 17 15 16 16 15 14 13 13 14 12 11 11 10 9 9 9 9 8 8 8 9 9 8 8 8 7
15 15 16 19 20 18 17 16 13 12 11 11 12 13 13 15 17 19 21 21 20 20 20 22 25 26 25 24 24 24 24 24 23 23 23 23 24 25 24 23 22 22 22 23 23 22 20 19 20 21 22 21 20 18 18 17 16 15 17 18 16 16 17 17 15 13 13 14 13 12 12 12 10 9 10 10 9 9 9 9 9 8 8 8 7
15 15 17 19 19 17 15 14 12 11 12 12 13 13 15 17 18 19 20 20 18 16 17 20 21 21 21 21 23 24 25 24 24 25 24 23 23 24 24 23 22 22 23 23 23 24 22 21 21 22 22 22 21 20 20 19 17 16 19 20 18 18 19 18 16 14 14 15 14 13 12 12 10 10 10 10 10 10 9 9 9 9 8 8 8
16 18 19 19 19 18 15 13 13 12 11 11 13 15 16 17 17 18 19 18 16 13 15 19 20 20 20 20 22 23 24 24 25 25 25 25 24 24 25 25 24 24 24 23 24 24 22 21 20 20 21 22 22 21 21 23 22 20 21 21 20 20 21 20 17 15 15 15 15 14 13 11 11 10 11 11 11 11 10 10 9 8 9 9 8
19 21 21 19 18 17 16 14 13 11 11 12 14 15 15 15 16 16 16 15 14 13 16 19 21 22 21 21 21 23 24 24 25 25 25 25 25 25 25 25 24 23 23 23 23 22 21 20 20 19 19 20 21 21 21 23 23 23 22 22 22 22 21 20 18 16 16 16 15 14 13 12 12 11 11 12 12 11 10 10 9 9 9 9 9
21 22 21 19 17 16 15 14 12 11 12 12 13 14 14 14 14 14 14 13 12 13 17 20 22 23 22 22 22 23 24 24 24 24 24 25 25 26 26 25 24 23 22 22 22 21 20 20 21 19 17 17 18 20 21 22 22 23 24 23 23 22 21 19 18 17 16 16 16 15 14 13 13 13 12 12 12 12 11 10 9 9 9 10 9
21 22 21 19 16 15 14 13 12 13 13 12 13 13 13 13 14 14 14 13 13 15 18 21 23 23 22 23 23 24 24 25 25 25 24 25 25 26 26 26 25 24 22 22 22 21 20 20 21 20 18 18 18 19 21 22 23 24 24 23 22 21 21 20 19 17 16 16 16 15 15 14 13 13 13 13 13 13 12 11 10 10 10 10 9
22 22 20 18 16 15 14 13 13 13 13 13 13 13 13 13 15 15 15 15 16 18 19 21 23 24 24 25 26 26 26 26 26 26 26 25 26 26 26 27 26 25 24 23 23 22 21 20 20 21 21 20 20 20 22 23 24 24 23 22 22 22 22 21 19 17 17 17 16 16 15 14 13 12 12 13 13 12 12 11 10 11 11 11 10
21 21 20 19 17 16 15 15 14 14 13 13 13 13 13 13 14 15 15 16 17 18 19 20 22 24 25 26 28 29 29 29 28 28 27 26 26 26 26 27 26 25 25 25 24 23 22 21 21 21 22 22 22 21 22 23 24 24 23 22 23 24 23 21 19 18 18 18 16 15 15 14 13 12 12 13 12 12 12 12 12 12 12 12 12
20 21 20 20 19 17 17 16 15 14 13 13 13 13 13 13 14 14 15 16 17 18 19 20 22 24 24 27 29 31 31 31 30 29 29 28 27 26 26 26 27 26 26 25 25 25 24 23 22 21 22 23 23 22 22 23 25 25 24 24 24 23 23 21 19 18 18 17 17 15 14 13 12 11 12 13 12 11 12 13 13 14 14 13 13
19 20 19 20 19 18 17 16 16 15 14 13 13 13 13 14 15 15 16 17 18 19 19 20 23 24 25 26 27 30 31 33 33 31 30 29 29 28 27 26 27 27 26 25 26 26 26 25 24 22 22 23 23 23 23 24 24 23 21 22 23 23 22 21 19 18 18 17 16 15 13 13 12 12 13 14 13 13 13 14 15 15 14 14 14
18 19 19 19 19 18 17 16 15 15 14 13 13 13 14 14 15 16 16 17 18 19 20 21 22 25 26 26 27 27 29 32 33 33 32 31 30 30 29 27 26 26 26 26 26 26 26 26 26 24 22 22 23 24 24 25 24 20 18 19 22 23 22 21 19 19 18 17 16 15 14 14 14 14 14 14 14 14 14 15 15 15 14 14 15
18 18 18 19 18 18 17 16 15 15 14 14 14 14 14 15 15 16 17 17 18 19 20 22 22 24 26 27 27 27 28 29 31 33 33 32 31 31 31 30 28 26 26 26 26 25 26 27 26 25 23 22 23 24 25 26 24 21 19 19 21 22 21 20 20 20 19 18 18 16 15 15 14 14 14 14 14 14 15 15 15 16 15 15 16
17 18 18 18 18 18 17 16 16 15 14 14 14 14 15 16 16 16 17 17 19 20 21 22 23 24 25 26 27 27 28 29 30 32 33 32 31 30 30 31 30 28 26 26 26 26 26 27 27 26 24 23 23 24 25 26 25 24 22 21 22 21 20 21 21 21 20 20 20 18 16 15 15 15 14 14 14 15 15 15 15 16 16 17 17
Wind_Direction
302 304 306 304 307 310 313 314 315 317 320 323 323 324 326 330 330 332 334 336 340 343 345 345 348 349 348 346 346 345 343 343 344 348 351 355 359 1 5 8 8 6 6 5 2 356 354 354 352 352 0 3 1 358 357 5 10 11 13 17 18 19 23 30 26 18 17 20 25 29 31 24 15 12 15 15 14 9 5 5 2 359 356 355 354
301 304 304 304 307 309 312 313 316 320 322 323 323 326 329 332 332 334 334 337 341 344 346 345 348 348 347 345 345 346 344 343 345 348 353 357 360 3 6 10 10 9 8 7 4 1 359 356 355 354 359 360 357 357 359 5 10 11 11 19 28 26 25 32 33 29 26 24 22 23 27 25 18 14 12 11 10 7 4 3 360 357 355 354 353
299 300 301 303 305 306 310 312 317 320 322 322 324 327 331 334 334 335 335 338 340 344 346 345 346 345 345 343 343 345 344 343 343 346 352 356 358 1 5 9 10 10 9 8 6 4 4 359 358 357 357 357 356 356 0 6 9 11 10 19 32 33 29 31 37 38 37 33 28 24 25 23 20 17 11 8 7 5 2 0 358 356 356 356 354
293 294 298 299 300 303 307 310 316 319 320 324 325 329 333 335 335 335 334 336 339 342 344 344 342 340 341 339 338 339 341 342 342 343 347 352 354 357 1 6 8 10 10 9 7 6 6 4 3 2 0 357 357 356 358 4 6 8 10 17 31 39 34 32 38 43 44 40 34 27 26 21 16 17 12 8 6 3 360 358 357 356 357 357 356
285 290 292 293 297 300 305 308 313 317 322 325 327 329 333 336 336 335 334 336 338 340 342 342 338 337 337 336 334 333 338 340 340 340 341 346 349 353 357 2 5 7 9 10 9 7 7 7 7 6 4 0 358 357 358 1 3 5 6 14 25 37 37 33 34 40 43 39 38 28 19 17 16 17 11 7 5 1 357 356 355 356 357 357 359
278 285 285 287 292 296 301 303 310 317 323 326 328 329 331 335 335 335 335 337 338 339 341 340 337 335 335 335 332 330 334 337 338 337 336 339 343 347 352 358 3 6 8 10 11 10 8 8 9 8 7 4 1 359 358 359 358 0 0 8 20 31 39 39 34 38 43 33 28 22 11 13 18 15 9 6 2 357 355 353 352 355 356 357 0
271 277 279 280 285 290 292 297 308 318 323 326 328 328 331 334 335 336 336 337 338 339 340 339 336 334 334 334 331 329 330 333 335 334 334 334 336 340 346 353 359 3 6 9 12 12 11 9 9 8 8 6 5 3 0 358 354 355 354 2 16 28 40 49 45 41 39 29 19 8 8 13 16 12 7 5 360 355 353 350 349 354 356 358 0
264 270 271 272 276 279 284 295 308 318 323 325 326 327 330 333 335 336 336 337 337 338 339 338 334 332 332 330 329 327 326 329 330 331 332 333 334 336 341 349 355 359 2 6 11 14 13 11 9 7 7 7 7 6 2 358 354 350 349 358 11 34 50 59 59 46 31 30 10 351 10 13 12 10 6 4 360 356 353 351 350 354 356 356 357
259 261 261 261 265 270 279 293 310 319 321 322 324 325 328 332 335 336 337 337 337 338 336 335 333 330 328 326 326 324 323 325 326 328 329 332 333 334 338 344 350 353 356 1 6 12 14 12 10 7 6 6 6 7 5 1 359 356 353 359 15 44 56 55 52 42 26 16 337 344 10 7 8 8 6 5 2 1 357 354 352 355 356 354 353
251 251 252 253 257 264 275 295 312 316 318 320 321 323 327 330 333 335 336 336 336 335 332 331 329 327 324 322 321 320 320 322 323 324 326 330 332 333 336 341 345 348 351 353 357 4 9 11 10 8 6 5 6 7 6 2 357 356 1 5 20 42 46 38 15 356 353 337 323 337 356 1 6 6 5 6 6 5 359 354 354 354 353 349 348
239 242 245 248 253 259 274 296 307 310 313 315 318 322 325 328 331 332 333 334 334 332 328 326 324 323 319 318 318 317 317 319 320 320 323 327 330 332 334 338 340 342 345 347 349 354 0 4 6 7 6 4 6 7 6 1 349 334 331 339 330 333 359 356 338 339 338 328 326 329 342 356 3 5 5 8 10 6 359 354 353 353 349 346 343
229 237 243 244 250 260 276 292 299 304 308 311 316 318 322 326 328 329 330 330 330 328 324 321 319 318 315 314 314 314 314 315 318 319 322 324 327 329 332 335 336 338 340 342 344 344 349 355 358 2 4 3 4 5 4 0 347 323 302 294 294 300 315 323 331 340 338 334 337 338 345 356 0 5 8 13 13 6 358 353 353 352 348 345 340
228 236 241 244 252 264 276 285 292 298 302 308 310 314 319 322 323 325 326 325 324 322 320 317 314 313 312 312 311 312 312 313 315 317 320 322 324 326 330 333 334 335 336 337 339 338 339 345 350 354 358 0 0 1 360 358 350 328 301 289 287 293 304 315 328 339 338 342 348 350 353 357 359 4 12 17 15 6 359 354 354 353 349 345 339
231 237 243 251 258 266 274 280 287 292 297 301 304 309 313 316 318 319 320 319 317 315 314 312 309 309 308 308 309 310 310 311 313 315 318 320 321 324 328 331 332 332 332 333 334 335 335 338 341 344 350 354 356 357 356 356 352 338 312 294 287 288 298 310 322 333 336 343 349 352 353 351 355 3 13 18 13 5 359 357 356 354 351 346 339
238 245 252 257 263 268 272 277 282 285 289 292 296 303 306 309 310 312 312 311 309 306 307 305 303 302 302 303 305 306 307 309 310 313 315 316 318 320 325 329 329 329 329 329 330 332 332 331 333 336 340 345 349 353 355 354 350 342 324 303 293 291 298 309 318 328 334 338 342 347 350 347 351 360 10 14 9 1 357 356 355 354 352 346 340
247 253 256 261 265 267 270 272 275 278 281 285 289 293 297 300 301 303 302 301 299 297 297 297 295 295 295 297 300 303 305 307 309 310 312 313 314 318 322 325 327 326 325 326 328 329 328 325 325 329 332 335 341 348 352 352 349 341 332 316 306 304 306 311 317 325 327 328 333 341 347 347 349 355 2 6 3 358 357 355 354 353 351 346 340
251 255 258 262 263 265 267 266 268 271 274 277 281 283 286 288 288 291 290 290 288 287 287 288 289 289 291 293 298 302 304 305 306 308 309 310 312 316 320 322 323 324 322 322 326 327 324 321 319 322 326 328 332 341 347 349 349 343 335 326 317 315 311 312 316 320 321 322 327 335 343 344 346 352 355 357 357 357 356 354 352 351 348 344 339
253 256 259 261 262 262 261 261 262 265 268 269 270 273 273 274 276 278 279 279 279 279 280 283 286 287 289 293 297 301 303 304 304 305 307 309 312 315 318 320 321 322 321 320 322 324 320 317 314 317 322 323 324 334 342 344 348 344 338 330 322 320 314 310 313 315 317 320 325 330 337 339 342 347 349 349 352 351 352 351 349 348 346 341 337
256 259 261 261 260 259 257 257 257 257 259 260 261 262 262 264 267 270 272 273 274 275 278 281 284 287 290 294 297 300 302 303 302 304 306 310 313 314 316 317 319 320 319 317 317 318 316 313 309 310 317 319 319 327 335 338 343 343 340 334 326 323 319 312 310 314 316 318 321 326 334 336 340 345 346 346 346 346 347 348 347 346 342 338 334
259 262 263 259 258 256 254 251 250 251 250 252 254 254 256 258 262 265 267 269 272 274 277 280 281 286 291 295 298 301 302 303 302 305 308 310 312 314 315 314 316 318 316 314 313 312 310 308 305 304 308 313 316 321 328 331 337 341 340 335 328 323 322 315 309 312 315 316 318 325 332 334 340 345 348 349 345 345 346 346 345 343 339 334 331
262 263 261 257 257 255 251 247 244 243 244 246 248 249 252 255 258 261 264 267 269 271 272 274 278 284 290 294 297 302 304 303 303 304 306 308 311 314 315 314 314 314 313 312 311 308 303 300 300 299 302 310 314 317 321 325 331 336 338 336 330 324 322 316 309 309 312 315 318 324 330 333 337 344 350 351 345 344 345 344 344 342 339 335 330
265 264 260 257 255 252 247 243 239 238 239 242 244 247 250 251 255 257 261 263 264 264 265 268 275 283 289 294 299 305 304 301 299 298 301 305 309 312 314 315 314 311 310 309 309 304 298 293 294 297 299 308 315 313 314 319 325 330 334 337 331 323 321 317 308 305 307 311 316 321 325 327 330 337 342 340 336 337 340 341 342 342 339 336 332
267 263 260 258 254 250 244 238 234 233 236 240 242 245 247 249 252 255 256 257 257 257 260 265 275 287 294 299 304 306 301 296 293 291 294 300 305 310 311 312 312 309 307 307 307 302 296 291 289 292 294 304 312 309 309 313 320 325 329 335 331 321 317 317 307 300 302 306 311 317 320 322 325 332 335 332 330 329 333 338 340 342 340 337 334
265 263 262 258 254 251 246 242 236 233 237 240 241 242 245 247 247 250 251 252 253 255 260 270 286 297 301 304 304 304 299 293 291 288 290 296 300 304 305 309 310 308 307 305 304 301 297 290 284 286 290 298 306 306 306 306 314 320 323 329 328 319 313 317 307 296 299 304 307 314 318 320 324 329 334 336 334 328 329 335 340 343 342 338 336
264 263 261 257 255 254 252 252 250 245 241 239 242 243 243 246 247 248 250 253 257 262 272 286 296 300 301 303 300 301 300 296 296 290 288 295 296 296 298 303 306 306 306 304 301 299 296 290 284 284 287 291 299 303 299 298 307 313 318 324 324 317 311 317 309 295 297 302 304 311 316 320 322 326 334 342 339 330 329 335 341 345 344 339 337
261 259 258 257 257 260 260 258 259 254 246 245 249 250 249 251 252 254 257 263 267 275 290 295 295 296 299 300 299 304 306 306 307 299 293 294 294 291 292 299 303 304 303 301 300 296 293 290 286 285 286 287 293 296 291 292 301 305 312 319 319 312 308 316 310 295 295 299 301 306 313 316 318 322 332 343 342 334 332 336 342 346 345 339 337
257 256 259 262 264 269 270 268 268 264 264 267 262 258 262 265 267 273 275 282 291 294 291 287 292 296 298 301 303 309 313 314 315 309 303 302 297 288 285 297 303 302 300 297 296 294 293 290 286 285 285 286 288 287 284 287 294 299 308 313 313 308 304 311 306 295 294 294 296 300 306 310 313 321 329 339 342 336 335 338 343 347 343 337 334
258 262 268 273 280 284 279 277 278 281 288 289 283 271 270 272 273 275 278 282 286 286 281 283 295 301 305 309 309 311 314 315 316 314 313 313 306 296 290 297 302 302 299 295 292 290 291 290 286 282 282 283 283 282 277 281 291 296 303 308 308 303 299 302 298 292 292 292 295 296 300 305 310 319 327 334 337 333 333 336 341 345 341 336 333
263 274 287 290 292 287 279 278 278 280 286 287 284 272 265 267 265 264 268 272 276 280 285 295 304 308 311 312 310 311 311 311 315 318 318 314 309 307 305 302 302 303 299 294 289 286 287 289 287 280 279 279 278 280 271 272 290 295 298 303 302 298 294 296 295 289 288 290 293 293 296 302 307 316 324 329 331 328 329 333 339 342 340 336 333
270 282 292 293 289 283 277 274 271 272 277 276 269 261 260 262 262 266 270 276 285 291 298 304 308 310 310 308 307 309 310 311 314 317 319 317 310 309 309 306 306 308 303 292 286 286 285 285 288 281 274 274 276 280 272 269 287 294 293 297 296 292 290 292 294 290 284 284 288 290 293 300 306 314 320 323 325 323 324 330 337 339 338 337 335
277 281 283 282 280 279 276 273 272 273 274 274 269 270 275 275 277 283 284 287 295 299 302 304 307 309 308 307 306 306 308 313 317 317 320 321 315 309 308 308 311 316 311 291 279 283 286 286 286 279 271 270 272 277 275 272 283 289 289 292 292 288 288 292 296 292 279 279 284 286 290 298 306 312 317 320 321 320 321 327 334 337 336 336 336
276 276 277 278 279 280 281 282 284 283 283 286 288 290 292 292 293 292 289 290 294 300 302 303 307 308 306 306 306 307 310 315 320 321 319 317 315 313 313 314 317 323 319 294 276 275 282 292 287 276 270 268 270 273 272 269 277 285 287 288 290 289 288 291 294 287 276 276 279 282 287 298 306 310 315 316 315 315 317 322 329 334 333 332 334
274 274 276 279 281 282 287 292 293 292 295 300 300 298 296 296 295 290 287 287 290 297 299 301 304 304 304 304 304 307 311 315 320 321 318 315 317 319 320 321 323 326 325 305 281 266 270 288 289 276 269 265 267 270 267 263 272 283 285 287 289 288 287 290 292 283 272 273 275 280 288 297 304 307 312 311 309 309 311 315 324 330 328 328 331
276 276 279 285 288 289 295 299 297 297 300 302 301 299 298 296 294 291 289 288 291 296 299 301 300 300 302 302 303 306 309 313 318 318 317 317 321 323 323 325 324 325 328 311 282 266 270 284 286 277 271 264 262 267 267 265 271 281 283 284 286 285 286 291 290 282 273 270 270 278 289 298 300 303 306 303 301 303 303 308 317 324 322 321 327
275 280 286 294 299 302 303 302 298 298 300 300 300 298 298 296 294 292 289 290 292 295 299 300 298 298 300 301 302 305 308 311 315 315 315 317 322 325 325 326 324 322 326 317 290 280 283 288 285 275 270 262 258 261 266 268 270 279 283 283 284 284 287 291 288 280 274 269 266 274 288 298 296 295 299 296 296 297 296 301 310 316 314 315 325
272 281 292 301 306 306 305 303 300 300 301 302 302 300 298 297 295 293 291 289 290 293 296 297 296 297 299 301 302 306 310 311 313 312 311 312 315 321 323 324 324 321 321 320 308 293 291 293 288 278 268 260 256 256 261 265 269 278 284 281 281 285 288 291 288 281 273 268 267 273 285 292 291 292 295 295 294 293 293 297 305 311 310 311 323
275 283 294 304 307 307 306 306 303 304 306 304 302 301 300 298 297 297 293 289 289 291 294 296 299 299 298 301 304 309 313 313 314 312 309 310 310 313 316 318 319 319 318 317 311 300 296 296 289 278 271 263 259 258 261 265 269 277 283 279 278 283 284 285 287 283 276 270 268 275 282 281 283 291 294 295 292 288 290 294 300 307 306 308 320
277 283 293 301 304 304 304 305 305 305 309 308 304 303 304 303 302 299 295 290 289 289 293 300 304 301 297 299 306 312 314 314 314 312 310 309 309 310 312 313 313 314 317 315 311 304 301 298 285 276 276 269 259 257 261 266 270 275 280 282 280 278 277 278 283 284 279 274 271 276 280 278 282 293 294 291 288 285 283 286 293 301 302 304 312
277 283 292 298 299 297 297 299 301 301 307 310 307 306 307 308 306 304 300 296 294 293 299 308 309 304 298 299 307 313 315 316 313 313 311 309 309 310 311 312 311 312 315 315 313 309 303 298 286 280 282 276 265 260 260 263 268 272 274 277 278 275 273 274 279 283 279 273 274 276 276 277 281 289 292 287 284 283 280 281 288 295 299 300 304
278 285 291 293 291 290 292 293 294 299 306 309 306 303 303 304 306 310 310 305 302 302 311 320 320 315 308 305 308 311 314 315 314 312 312 310 307 306 308 310 309 311 313 313 313 311 305 298 290 284 282 275 270 266 259 256 260 268 271 269 271 274 272 271 274 280 277 271 275 276 271 274 277 280 288 287 282 280 277 278 283 291 295 295 298
278 284 286 285 284 285 287 290 294 300 303 302 300 299 300 304 308 315 319 314 304 299 312 322 322 321 317 313 312 314 316 317 315 313 310 308 306 303 304 306 307 308 310 311 312 312 308 302 296 287 277 270 269 267 259 258 258 262 269 268 268 269 266 264 268 273 272 268 271 273 269 273 273 272 280 284 279 276 275 274 278 285 290 289 292
280 284 284 281 280 282 286 291 297 300 302 300 297 298 303 307 310 315 320 319 303 292 306 317 317 318 319 317 316 315 317 318 316 314 310 306 304 303 302 303 305 306 308 309 310 312 311 307 300 290 279 271 268 265 261 261 259 260 266 269 268 265 261 259 262 266 266 265 266 269 268 270 271 268 274 279 276 273 273 273 276 281 285 286 289
281 284 284 283 281 283 288 294 300 302 302 299 295 296 300 303 306 309 314 320 312 300 306 312 312 314 315 314 313 312 312 312 313 313 311 309 306 304 302 302 303 304 307 307 307 308 308 306 301 292 282 273 266 263 260 258 260 263 267 269 266 262 260 257 258 261 262 261 261 262 262 266 268 264 265 272 274 274 271 271 274 278 280 280 283
279 282 283 285 287 287 290 294 299 301 299 294 291 292 295 298 299 303 307 312 311 306 307 308 308 309 310 310 309 308 307 307 308 309 310 311 309 306 302 301 301 301 302 302 302 301 300 301 298 291 283 276 267 263 262 261 262 264 267 268 261 256 258 256 256 260 258 255 256 258 258 261 262 258 259 269 274 273 270 270 273 274 276 277 280
278 279 280 283 288 291 293 296 298 297 294 289 288 290 290 291 292 295 300 300 299 301 303 304 304 306 308 307 306 306 306 305 306 306 306 306 307 306 303 300 299 298 298 297 296 294 294 294 293 290 285 279 272 265 264 264 263 263 265 263 252 248 252 252 254 257 252 250 253 256 255 255 255 252 259 269 271 269 268 271 273 274 276 280 283
274 275 277 282 287 292 296 298 298 293 291 288 285 285 284 285 288 291 293 294 296 300 302 302 302 304 306 305 305 306 306 306 305 304 304 302 302 303 302 300 297 295 293 293 291 289 289 289 288 287 284 279 275 268 264 263 264 264 263 256 246 244 246 247 250 251 249 250 251 252 252 254 252 250 259 265 264 265 268 272 274 275 277 280 281
269 272 276 282 287 293 296 297 296 293 292 289 286 286 286 288 290 291 293 296 300 302 303 304 303 304 304 303 304 306 307 307 306 305 302 300 299 299 299 299 296 294 290 288 286 286 287 287 284 283 281 280 279 273 268 268 267 265 260 251 244 242 242 244 245 244 247 251 250 248 251 253 250 251 261 261 257 259 262 266 271 274 274 275 279
263 270 277 283 288 293 295 295 294 293 291 289 288 288 290 291 292 295 298 300 301 302 303 302 303 304 305 304 304 305 307 307 308 307 305 301 298 296 296 296 296 294 289 284 282 284 285 284 283 282 280 280 281 276 272 273 273 266 254 243 240 241 240 242 241 239 244 249 246 245 249 249 245 249 258 256 253 257 257 259 266 269 270 274 280
261 269 277 283 288 289 291 291 289 289 287 285 286 287 289 291 293 295 298 300 300 300 301 300 302 304 306 307 307 306 306 306 306 307 306 304 301 297 294 294 295 293 289 284 281 281 283 283 283 283 282 282 282 278 272 273 272 259 241 236 239 242 241 240 239 238 242 244 240 240 247 248 246 249 254 252 251 256 257 259 263 266 268 273 280
261 269 276 280 283 284 284 285 284 283 282 282 284 287 289 291 292 295 297 299 300 300 302 302 303 304 306 309 309 308 308 307 306 305 305 304 303 301 297 294 294 293 288 284 281 279 280 281 282 282 282 282 281 277 269 268 265 249 238 242 245 244 240 238 240 241 241 239 238 242 245 246 248 251 253 252 252 256 259 262 265 267 270 275 278
264 270 275 277 279 280 281 281 281 279 279 281 284 286 288 291 293 296 297 300 303 304 305 306 305 305 306 309 310 311 311 310 307 305 303 302 302 302 299 295 293 291 288 284 281 278 276 277 278 279 281 282 281 276 268 262 255 243 242 249 248 241 238 240 244 244 241 238 240 243 243 244 250 252 251 253 254 257 261 264 267 269 273 276 278
Height
5883 5882 5882 5882 5881 5881 5880 5879 5879 5878 5878 5877 5876 5876 5875 5874 5873 5873 5872 5871 5871 5870 5869 5868 5867 5866 5866 5865 5864 5862 5861 5860 5858 5857 5857 5856 5855 5854 5853 5852 5851 5851 5850 5849 5849 5848 5847 5846 5845 5845 5844 5844 5844 5844 5844 5843 5842 5842 5841 5841 5841 5841 5840 5840 5839 5839 5839 5839 5838 5838 5838 5839 5839 5839 5839 5839 5839 5839 5839 5838 5838 5838 5837 5837 5836
5882 5881 5881 5880 5880 5880 5879 5878 5878 5877 5877 5877 5876 5875 5875 5874 5873 5872 5871 5871 5870 5869 5869 5868 5867 5866 5865 5864 5863 5862 5861 5859 5858 5857 5856 5856 5855 5854 5853 5852 5852 5851 5850 5849 5849 5848 5847 5846 5845 5845 5844 5844 5844 5844 5843 5843 5842 5842 5842 5841 5841 5841 5841 5840 5840 5840 5839 5839 5839 5839 5839 5839 5839 5839 5839 5839 5839 5839 5839 5838 5838 5838 5837 5837 5836
5881 5880 5879 5879 5879 5879 5878 5877 5877 5877 5877 5876 5876 5875 5874 5873 5872 5872 5871 5870 5870 5869 5868 5867 5867 5866 5865 5864 5863 5862 5861 5859 5858 5857 5856 5856 5855 5854 5854 5853 5852 5851 5850 5849 5848 5847 5847 5846 5845 5845 5844 5844 5844 5844 5843 5843 5842 5842 5842 5841 5841 5841 5841 5841 5840 5840 5840 5839 5839 5839 5840 5839 5839 5839 5839 5839 5839 5839 5838 5838 5838 5837 5837 5837 5836
5879 5879 5878 5878 5878 5878 5877 5877 5877 5876 5876 5875 5875 5875 5874 5873 5872 5871 5870 5870 5869 5869 5868 5867 5866 5866 5865 5864 5863 5862 5860 5859 5858 5857 5856 5856 5855 5854 5853 5853 5852 5851 5850 5849 5848 5847 5847 5846 5845 5845 5844 5844 5844 5843 5843 5843 5842 5842 5842 5841 5841 5840 5841 5841 5840 5840 5840 5840 5840 5840 5840 5840 5839 5839 5839 5839 5839 5838 5838 5838 5838 5837 5837 5837 5836
5878 5877 5877 5877 5877 5877 5877 5876 5876 5876 5875 5875 5874 5874 5873 5872 5871 5871 5870 5869 5869 5868 5867 5867 5866 5865 5864 5863 5862 5861 5860 5859 5858 5857 5856 5855 5854 5854 5853 5853 5852 5852 5851 5850 5848 5847 5846 5846 5845 5845 5844 5844 5844 5843 5843 5842 5842 5842 5841 5841 5841 5840 5840 5841 5841 5840 5840 5840 5840 5840 5840 5840 5839 5839 5839 5839 5838 5838 5838 5838 5837 5837 5837 5836 5836
5877 5876 5876 5876 5876 5876 5876 5876 5876 5875 5875 5874 5874 5873 5873 5872 5871 5870 5869 5869 5868 5867 5867 5866 5865 5865 5864 5863 5862 5861 5860 5858 5857 5856 5855 5854 5854 5853 5852 5852 5852 5852 5851 5850 5848 5847 5846 5846 5845 5845 5844 5844 5844 5843 5843 5842 5842 5842 5841 5841 5841 5840 5840 5840 5840 5840 5840 5840 5840 5840 5840 5839 5839 5838 5838 5838 5838 5838 5838 5837 5837 5837 5836 5836 5836
5875 5875 5875 5875 5875 5875 5875 5875 5875 5875 5874 5874 5873 5873 5872 5871 5870 5869 5869 5868 5867 5867 5866 5866 5865 5864 5863 5862 5861 5860 5859 5858 5857 5856 5855 5854 5853 5852 5852 5851 5851 5851 5850 5849 5848 5847 5846 5846 5845 5845 5844 5844 5843 5843 5842 5842 5842 5841 5841 5841 5841 5840 5840 5840 5840 5840 5840 5840 5840 5840 5839 5839 5838 5838 5838 5838 5838 5837 5837 5837 5837 5837 5836 5836 5835
5874 5874 5874 5874 5874 5875 5875 5875 5875 5874 5874 5873 5873 5872 5871 5870 5870 5869 5868 5867 5867 5866 5865 5865 5864 5863 5862 5861 5860 5859 5858 5857 5856 5855 5854 5853 5852 5851 5851 5850 5850 5850 5850 5849 5848 5847 5846 5845 5845 5844 5844 5844 5843 5843 5842 5842 5842 5841 5841 5841 5841 5840 5840 5840 5840 5839 5839 5839 5840 5839 5839 5838 5838 5838 5838 5837 5837 5837 5837 5837 5837 5836 5836 5836 5835
5873 5873 5873 5874 5874 5874 5874 5874 5874 5874 5873 5872 5872 5871 5871 5870 5869 5868 5867 5867 5866 5865 5865 5864 5863 5862 5861 5860 5859 5858 5857 5856 5855 5854 5853 5853 5852 5851 5850 5850 5849 5849 5849 5848 5848 5847 5846 5846 5845 5845 5844 5843 5843 5843 5842 5842 5842 5841 5841 5841 5841 5840 5840 5839 5839 5839 5839 5839 5839 5839 5838 5838 5838 5837 5837 5837 5837 5836 5836 5836 5836 5836 5836 5835 5835
5872 5872 5872 5873 5873 5873 5874 5874 5873 5873 5872 5872 5871 5871 5870 5869 5868 5867 5867 5866 5865 5864 5864 5863 5862 5861 5860 5859 5858 5857 5856 5855 5855 5854 5853 5852 5851 5850 5849 5849 5849 5848 5848 5848 5847 5847 5846 5846 5845 5845 5844 5843 5843 5842 5842 5842 5841 5841 5841 5841 5841 5840 5840 5839 5839 5839 5839 5839 5838 5838 5838 5837 5837 5837 5836 5836 5836 5836 5836 5836 5836 5835 5835 5835 5835
5871 5871 5872 5872 5872 5873 5873 5873 5873 5872 5872 5871 5870 5870 5869 5868 5868 5867 5866 5865 5864 5864 5863 5862 5861 5860 5859 5858 5857 5856 5855 5855 5854 5853 5852 5851 5850 5850 5849 5849 5848 5848 5847 5847 5847 5846 5846 5845 5845 5845 5844 5843 5843 5842 5842 5842 5841 5841 5841 5841 5840 5840 5840 5839 5839 5839 5839 5838 5838 5838 5837 5837 5836 5836 5836 5836 5836 5836 5836 5836 5835 5835 5835 5835 5834
5871 5871 5871 5872 5872 5872 5872 5872 5872 5871 5871 5870 5870 5869 5868 5867 5867 5866 5865 5864 5863 5862 5861 5861 5860 5859 5857 5856 5856 5855 5854 5854 5853 5852 5851 5850 5850 5849 5849 5848 5848 5847 5847 5846 5846 5846 5846 5845 5845 5844 5844 5843 5843 5842 5842 5842 5841 5841 5841 5840 5840 5840 5839 5839 5839 5839 5838 5838 5837 5837 5837 5836 5836 5836 5835 5835 5835 5835 5835 5835 5835 5835 5834 5834 5834
5870 5870 5870 5871 5871 5871 5871 5871 5871 5870 5870 5869 5868 5868 5867 5866 5865 5864 5863 5862 5861 5861 5860 5859 5858 5857 5856 5855 5855 5854 5854 5853 5852 5851 5851 5850 5849 5848 5848 5848 5847 5847 5846 5845 5845 5845 5845 5845 5844 5844 5844 5843 5842 5842 5842 5842 5841 5841 5840 5840 5840 5839 5839 5839 5839 5838 5838 5837 5837 5837 5836 5836 5836 5835 5835 5835 5835 5835 5835 5835 5835 5834 5834 5834 5833
5869 5869 5869 5870 5870 5870 5870 5870 5869 5869 5868 5868 5867 5866 5866 5865 5864 5863 5862 5861 5860 5859 5858 5858 5857 5856 5855 5854 5853 5853 5853 5852 5851 5851 5850 5849 5848 5848 5847 5847 5847 5846 5846 5845 5844 5844 5844 5844 5844 5843 5843 5843 5842 5842 5841 5841 5841 5840 5840 5840 5839 5839 5839 5838 5838 5838 5837 5837 5837 5836 5836 5836 5835 5835 5835 5834 5835 5835 5835 5835 5834 5834 5834 5833 5833
5867 5868 5869 5869 5869 5869 5869 5868 5868 5867 5867 5866 5866 5865 5864 5864 5863 5862 5861 5860 5858 5857 5857 5856 5856 5855 5854 5853 5852 5852 5852 5851 5851 5850 5849 5849 5848 5847 5847 5846 5846 5846 5845 5844 5844 5843 5843 5843 5843 5843 5842 5843 5842 5841 5841 5841 5840 5840 5839 5839 5839 5839 5838 5838 5838 5837 5837 5837 5836 5836 5836 5836 5835 5835 5834 5834 5834 5835 5834 5834 5834 5834 5833 5833 5833
5867 5867 5868 5868 5868 5867 5867 5866 5866 5865 5865 5865 5864 5864 5863 5862 5861 5860 5859 5858 5857 5856 5855 5854 5854 5853 5853 5852 5852 5851 5851 5851 5850 5849 5848 5848 5848 5847 5846 5846 5846 5845 5845 5844 5843 5843 5843 5842 5842 5842 5842 5842 5842 5841 5840 5840 5840 5839 5839 5838 5838 5838 5838 5838 5837 5837 5837 5836 5836 5836 5836 5836 5835 5835 5835 5834 5834 5834 5834 5834 5834 5833 5833 5833 5832
5866 5867 5867 5867 5866 5866 5865 5864 5864 5863 5863 5863 5863 5862 5861 5860 5859 5858 5857 5856 5855 5854 5853 5852 5852 5852 5852 5851 5851 5851 5851 5850 5849 5848 5847 5847 5847 5846 5846 5845 5845 5845 5844 5843 5843 5843 5842 5842 5841 5841 5841 5841 5841 5841 5840 5839 5839 5838 5838 5838 5838 5838 5838 5837 5837 5837 5836 5836 5836 5836 5836 5835 5835 5835 5835 5835 5835 5834 5834 5834 5833 5833 5832 5832 5832
5866 5866 5866 5866 5865 5864 5863 5862 5862 5862 5861 5861 5860 5860 5859 5858 5857 5856 5855 5854 5853 5852 5851 5851 5851 5851 5851 5851 5851 5851 5850 5850 5849 5848 5847 5846 5846 5846 5845 5845 5844 5844 5843 5843 5842 5842 5842 5841 5841 5840 5840 5840 5840 5840 5840 5839 5838 5838 5837 5837 5837 5837 5837 5837 5837 5837 5836 5836 5836 5836 5836 5835 5835 5835 5835 5835 5834 5834 5834 5833 5833 5832 5832 5832 5831
5865 5865 5864 5864 5862 5861 5861 5860 5860 5859 5859 5858 5858 5858 5857 5856 5855 5854 5853 5852 5852 5851 5850 5850 5850 5851 5851 5851 5851 5851 5850 5849 5848 5847 5846 5845 5845 5844 5845 5844 5844 5843 5842 5842 5841 5841 5841 5841 5840 5840 5839 5840 5840 5839 5839 5838 5838 5837 5837 5837 5837 5837 5837 5837 5837 5837 5836 5836 5836 5836 5835 5835 5835 5835 5835 5834 5834 5834 5833 5833 5833 5832 5832 5831 5831
5864 5863 5862 5861 5860 5859 5858 5857 5857 5856 5856 5856 5856 5855 5855 5854 5853 5852 5852 5851 5850 5850 5849 5849 5850 5850 5850 5850 5850 5850 5850 5849 5848 5847 5846 5845 5843 5843 5843 5843 5843 5842 5841 5841 5841 5841 5840 5840 5839 5839 5839 5839 5839 5839 5838 5838 5837 5837 5837 5836 5836 5837 5837 5837 5836 5836 5836 5836 5836 5835 5835 5835 5835 5835 5834 5834 5834 5834 5833 5833 5832 5832 5831 5831 5830
5862 5861 5860 5858 5857 5856 5854 5853 5853 5853 5854 5854 5854 5854 5853 5852 5851 5851 5851 5850 5849 5848 5848 5848 5849 5850 5850 5850 5850 5850 5849 5848 5847 5846 5845 5844 5843 5842 5841 5841 5842 5842 5840 5840 5840 5840 5840 5839 5838 5838 5838 5838 5839 5839 5838 5837 5837 5837 5836 5836 5836 5836 5836 5836 5836 5836 5836 5836 5835 5835 5835 5835 5835 5834 5834 5834 5834 5833 5833 5832 5832 5831 5831 5830 5830
5860 5859 5857 5856 5854 5851 5849 5849 5849 5850 5852 5852 5852 5852 5851 5851 5850 5849 5849 5848 5847 5846 5846 5847 5849 5850 5850 5849 5850 5849 5848 5847 5846 5845 5844 5843 5842 5841 5840 5840 5840 5841 5840 5839 5839 5839 5839 5838 5838 5837 5837 5837 5838 5838 5838 5837 5836 5836 5835 5835 5835 5835 5836 5836 5835 5835 5835 5835 5835 5835 5834 5834 5834 5834 5833 5833 5833 5833 5833 5832 5831 5831 5830 5830 5829
5858 5856 5855 5853 5849 5845 5843 5843 5845 5848 5850 5850 5850 5850 5849 5848 5848 5847 5846 5845 5843 5843 5844 5847 5850 5850 5850 5850 5850 5848 5847 5845 5843 5843 5843 5842 5841 5841 5839 5838 5838 5838 5839 5839 5838 5838 5838 5837 5837 5837 5836 5837 5837 5837 5837 5837 5836 5835 5835 5835 5834 5834 5835 5836 5835 5834 5834 5834 5834 5834 5834 5834 5833 5833 5833 5833 5833 5833 5832 5832 5831 5830 5830 5829 5828
5855 5854 5852 5847 5842 5840 5841 5843 5846 5848 5849 5848 5848 5847 5847 5846 5845 5843 5842 5841 5841 5842 5846 5850 5852 5852 5850 5850 5849 5848 5846 5844 5842 5841 5841 5840 5840 5840 5838 5837 5836 5835 5836 5837 5837 5837 5836 5836 5836 5836 5835 5836 5836 5836 5836 5836 5836 5835 5834 5834 5834 5833 5833 5835 5835 5833 5833 5834 5833 5833 5833 5833 5833 5833 5833 5832 5832 5832 5832 5831 5830 5830 5829 5828 5828
5852 5851 5846 5840 5839 5841 5844 5847 5847 5847 5847 5846 5846 5845 5845 5844 5842 5841 5841 5841 5842 5846 5850 5854 5853 5851 5849 5849 5848 5846 5845 5843 5843 5843 5841 5839 5839 5839 5837 5836 5835 5833 5833 5834 5835 5835 5835 5835 5834 5834 5834 5835 5835 5835 5835 5835 5835 5834 5834 5833 5833 5832 5832 5834 5835 5833 5833 5833 5832 5832 5832 5832 5832 5832 5832 5832 5832 5831 5831 5831 5830 5829 5828 5828 5827
5848 5844 5839 5837 5840 5844 5847 5847 5845 5845 5846 5846 5846 5847 5847 5845 5845 5844 5844 5845 5847 5851 5853 5852 5851 5849 5848 5847 5846 5845 5844 5844 5845 5844 5841 5840 5840 5838 5837 5835 5834 5832 5832 5832 5832 5833 5833 5834 5833 5833 5833 5833 5834 5834 5834 5834 5834 5834 5833 5833 5832 5832 5831 5833 5834 5833 5832 5832 5832 5831 5831 5832 5832 5832 5832 5831 5831 5831 5830 5830 5829 5828 5828 5828 5827
5841 5838 5837 5840 5842 5845 5848 5847 5845 5846 5848 5848 5848 5851 5851 5849 5849 5849 5848 5848 5849 5851 5850 5848 5847 5847 5846 5845 5844 5844 5843 5843 5844 5843 5841 5841 5840 5838 5837 5835 5833 5832 5831 5830 5829 5830 5831 5832 5832 5831 5831 5832 5832 5832 5833 5833 5833 5833 5832 5832 5831 5831 5831 5832 5833 5832 5831 5832 5831 5831 5831 5831 5831 5831 5831 5831 5831 5830 5830 5829 5829 5828 5827 5827 5827
5837 5836 5840 5843 5845 5847 5848 5847 5846 5847 5849 5848 5849 5851 5849 5848 5848 5847 5847 5847 5847 5846 5845 5844 5844 5844 5845 5844 5844 5843 5843 5842 5840 5840 5839 5839 5837 5836 5836 5835 5833 5832 5830 5829 5828 5827 5828 5830 5830 5830 5830 5830 5831 5831 5831 5832 5832 5832 5831 5831 5831 5830 5830 5830 5832 5832 5831 5830 5831 5830 5830 5830 5830 5830 5830 5830 5830 5830 5829 5829 5828 5828 5827 5827 5826
5838 5840 5843 5845 5845 5846 5845 5845 5844 5844 5844 5845 5846 5845 5843 5842 5842 5841 5841 5842 5843 5843 5842 5843 5843 5843 5844 5844 5843 5842 5840 5839 5837 5837 5837 5836 5834 5833 5834 5834 5832 5831 5829 5828 5827 5826 5826 5827 5828 5829 5829 5829 5829 5830 5830 5831 5831 5830 5830 5831 5830 5829 5829 5829 5831 5832 5831 5830 5830 5830 5830 5830 5829 5830 5830 5829 5829 5829 5829 5828 5828 5827 5827 5826 5826
5841 5842 5843 5843 5842 5841 5841 5841 5841 5840 5840 5840 5840 5838 5837 5838 5838 5838 5840 5841 5842 5842 5842 5842 5842 5842 5841 5841 5841 5840 5839 5837 5836 5836 5834 5833 5832 5833 5834 5833 5831 5829 5827 5826 5826 5825 5825 5826 5827 5827 5827 5828 5828 5828 5828 5829 5829 5829 5829 5829 5830 5829 5828 5828 5829 5831 5831 5829 5829 5829 5829 5829 5829 5829 5829 5828 5828 5828 5828 5828 5827 5827 5826 5825 5825
5843 5842 5840 5839 5839 5838 5838 5840 5840 5839 5838 5838 5839 5838 5838 5839 5839 5840 5842 5841 5841 5840 5840 5841 5841 5840 5838 5837 5838 5838 5838 5837 5836 5833 5832 5832 5832 5832 5833 5831 5829 5826 5824 5823 5823 5823 5823 5824 5825 5826 5825 5826 5826 5826 5827 5827 5827 5827 5828 5828 5829 5828 5827 5827 5828 5829 5830 5828 5828 5828 5828 5828 5828 5828 5828 5828 5827 5827 5827 5827 5826 5826 5825 5825 5824
5841 5840 5837 5836 5836 5836 5837 5839 5839 5840 5839 5839 5840 5841 5840 5840 5840 5841 5841 5840 5839 5839 5838 5838 5839 5838 5837 5836 5836 5836 5836 5836 5834 5831 5830 5830 5831 5830 5829 5828 5826 5823 5822 5821 5821 5823 5823 5823 5824 5824 5824 5824 5825 5826 5826 5826 5826 5826 5827 5827 5827 5827 5827 5826 5827 5827 5828 5827 5827 5827 5827 5827 5827 5827 5827 5826 5826 5826 5826 5826 5825 5825 5825 5824 5824
5838 5838 5835 5834 5835 5836 5837 5839 5839 5840 5840 5839 5840 5840 5840 5839 5838 5838 5837 5837 5837 5837 5836 5836 5837 5837 5836 5835 5835 5835 5834 5834 5833 5831 5830 5829 5828 5827 5825 5823 5822 5821 5820 5819 5820 5822 5823 5822 5822 5822 5823 5823 5823 5824 5824 5825 5825 5825 5826 5826 5826 5826 5826 5825 5825 5826 5826 5826 5826 5826 5826 5826 5826 5826 5825 5825 5825 5825 5825 5825 5825 5824 5824 5824 5823
5836 5835 5834 5835 5836 5836 5838 5838 5838 5839 5839 5839 5838 5838 5838 5836 5835 5834 5833 5833 5834 5834 5834 5834 5835 5835 5834 5833 5834 5834 5833 5832 5832 5831 5829 5827 5825 5823 5822 5821 5821 5821 5820 5819 5820 5822 5821 5820 5820 5820 5821 5821 5822 5822 5823 5823 5824 5824 5824 5824 5825 5825 5825 5825 5824 5824 5825 5825 5825 5825 5825 5825 5824 5824 5824 5824 5824 5824 5824 5824 5824 5823 5823 5823 5823
5834 5834 5834 5835 5836 5836 5836 5836 5836 5837 5837 5837 5837 5836 5836 5834 5833 5832 5831 5831 5832 5832 5832 5832 5832 5832 5832 5832 5832 5832 5832 5830 5830 5829 5827 5825 5823 5822 5820 5820 5821 5821 5821 5820 5820 5820 5819 5817 5817 5818 5818 5819 5820 5821 5821 5822 5822 5823 5823 5823 5824 5824 5823 5824 5824 5823 5823 5823 5824 5823 5823 5823 5823 5823 5823 5823 5823 5823 5823 5823 5823 5822 5823 5823 5822
5833 5833 5834 5835 5836 5835 5835 5834 5835 5836 5836 5836 5836 5835 5834 5833 5832 5831 5830 5830 5830 5830 5830 5830 5830 5829 5829 5829 5830 5830 5829 5828 5827 5826 5825 5824 5822 5821 5819 5819 5819 5820 5819 5818 5818 5818 5816 5815 5814 5815 5817 5817 5819 5819 5819 5820 5821 5822 5821 5822 5823 5823 5822 5823 5823 5822 5822 5822 5822 5822 5822 5822 5821 5821 5821 5821 5821 5822 5822 5822 5822 5822 5822 5822 5821
5832 5833 5834 5834 5835 5834 5834 5834 5834 5834 5834 5834 5834 5833 5833 5832 5831 5830 5830 5829 5829 5829 5829 5828 5828 5827 5827 5828 5828 5827 5826 5825 5824 5824 5823 5823 5822 5820 5819 5818 5817 5817 5817 5816 5816 5816 5814 5813 5813 5814 5816 5817 5818 5818 5818 5819 5819 5820 5820 5820 5821 5821 5821 5822 5822 5821 5820 5820 5820 5821 5821 5821 5820 5820 5820 5820 5820 5820 5821 5821 5821 5821 5821 5821 5821
5831 5832 5833 5833 5833 5833 5833 5832 5832 5832 5832 5832 5832 5832 5831 5831 5830 5829 5828 5828 5828 5828 5827 5827 5826 5826 5826 5827 5827 5825 5824 5822 5821 5821 5821 5821 5820 5819 5818 5817 5816 5815 5814 5814 5814 5814 5813 5812 5812 5813 5813 5815 5816 5816 5817 5817 5817 5818 5819 5819 5819 5819 5820 5820 5820 5820 5819 5818 5819 5820 5820 5819 5819 5819 5818 5818 5819 5819 5819 5820 5820 5820 5820 5820 5820
5829 5830 5831 5831 5831 5832 5832 5831 5831 5831 5831 5831 5830 5830 5830 5829 5829 5828 5827 5827 5827 5827 5826 5826 5826 5825 5826 5825 5824 5823 5822 5820 5819 5819 5818 5818 5818 5817 5817 5816 5815 5813 5812 5812 5812 5811 5812 5811 5811 5811 5811 5812 5814 5815 5815 5815 5816 5817 5818 5817 5818 5818 5818 5819 5819 5819 5818 5817 5817 5818 5818 5817 5817 5817 5817 5817 5817 5818 5818 5818 5819 5819 5819 5819 5819
5827 5828 5829 5829 5829 5830 5830 5830 5831 5830 5830 5829 5829 5828 5828 5827 5827 5826 5826 5825 5826 5826 5826 5826 5825 5824 5823 5822 5821 5819 5819 5818 5818 5817 5816 5816 5816 5816 5815 5815 5814 5813 5811 5810 5810 5809 5810 5810 5809 5809 5809 5810 5811 5812 5813 5813 5813 5815 5815 5815 5816 5817 5817 5817 5817 5818 5816 5816 5815 5816 5816 5815 5815 5816 5816 5816 5816 5817 5817 5817 5817 5817 5818 5818 5818
5825 5826 5826 5827 5827 5828 5828 5829 5829 5829 5829 5828 5828 5827 5826 5826 5826 5825 5824 5824 5824 5825 5825 5824 5823 5821 5820 5819 5818 5817 5817 5817 5816 5815 5815 5815 5815 5814 5814 5813 5813 5812 5810 5809 5808 5808 5808 5808 5808 5808 5808 5808 5808 5810 5810 5810 5811 5812 5812 5812 5814 5814 5814 5815 5816 5816 5815 5814 5814 5814 5814 5814 5814 5814 5815 5815 5815 5816 5816 5816 5816 5816 5817 5817 5817
5823 5823 5824 5825 5825 5826 5826 5827 5828 5827 5827 5827 5826 5826 5825 5825 5824 5823 5823 5822 5822 5822 5822 5822 5820 5819 5818 5817 5816 5816 5815 5815 5815 5814 5814 5813 5813 5813 5812 5811 5811 5810 5809 5808 5807 5806 5806 5806 5806 5806 5806 5806 5807 5807 5807 5807 5808 5809 5809 5810 5811 5811 5811 5812 5813 5814 5813 5813 5812 5812 5813 5813 5812 5813 5813 5814 5814 5814 5815 5815 5815 5815 5816 5816 5816
5821 5821 5821 5822 5823 5824 5825 5825 5825 5825 5825 5825 5825 5824 5824 5823 5823 5822 5821 5820 5820 5820 5819 5818 5817 5816 5816 5815 5815 5814 5814 5813 5813 5813 5812 5812 5811 5811 5810 5809 5808 5808 5807 5806 5805 5805 5804 5804 5804 5804 5804 5804 5804 5804 5804 5805 5806 5806 5806 5807 5808 5808 5809 5810 5810 5811 5811 5811 5811 5811 5811 5811 5811 5811 5811 5812 5812 5813 5813 5813 5814 5814 5814 5815 5815
5819 5819 5819 5820 5820 5822 5823 5823 5824 5823 5823 5823 5823 5822 5822 5821 5821 5820 5819 5819 5818 5817 5817 5816 5814 5814 5814 5813 5813 5812 5812 5812 5811 5811 5810 5810 5809 5808 5808 5807 5806 5805 5805 5804 5804 5804 5803 5802 5802 5802 5802 5802 5802 5802 5801 5802 5803 5804 5804 5804 5805 5805 5806 5807 5807 5809 5809 5809 5809 5809 5810 5810 5809 5809 5809 5810 5811 5811 5811 5812 5812 5812 5813 5813 5813
5817 5817 5818 5818 5818 5819 5820 5821 5821 5821 5821 5821 5821 5820 5820 5819 5818 5818 5817 5817 5816 5816 5815 5814 5812 5812 5812 5811 5810 5810 5810 5809 5809 5808 5808 5807 5807 5806 5805 5804 5804 5803 5803 5802 5802 5802 5802 5801 5800 5800 5800 5800 5800 5800 5799 5799 5800 5801 5801 5802 5802 5802 5803 5804 5805 5806 5807 5807 5807 5807 5808 5808 5807 5807 5807 5808 5809 5809 5809 5810 5811 5811 5811 5811 5811
5816 5816 5816 5816 5816 5817 5818 5819 5819 5819 5819 5819 5819 5818 5818 5817 5817 5816 5816 5815 5814 5814 5813 5812 5811 5810 5810 5809 5808 5808 5807 5807 5806 5806 5805 5805 5804 5804 5803 5802 5801 5801 5801 5801 5800 5800 5800 5799 5799 5798 5798 5798 5798 5798 5797 5797 5797 5798 5798 5799 5799 5800 5801 5802 5802 5803 5804 5805 5806 5806 5806 5806 5806 5806 5806 5806 5807 5807 5806 5807 5808 5809 5809 5809 5809
5814 5814 5814 5814 5814 5815 5816 5816 5816 5816 5816 5816 5816 5816 5815 5815 5814 5814 5813 5813 5812 5812 5811 5811 5810 5809 5809 5808 5807 5806 5805 5804 5804 5804 5803 5802 5802 5801 5800 5799 5798 5798 5799 5798 5798 5797 5797 5796 5796 5796 5795 5795 5795 5796 5795 5794 5794 5794 5795 5796 5797 5798 5799 5800 5800 5801 5801 5803 5804 5804 5804 5803 5804 5804 5804 5804 5805 5805 5805 5805 5805 5806 5807 5808 5808
5812 5812 5812 5812 5812 5813 5813 5814 5814 5814 5814 5814 5813 5813 5813 5812 5812 5811 5811 5810 5810 5809 5809 5809 5808 5807 5807 5807 5806 5804 5803 5802 5801 5802 5801 5800 5799 5798 5798 5797 5796 5795 5795 5795 5795 5794 5794 5793 5793 5793 5793 5793 5793 5793 5793 5792 5792 5791 5792 5793 5795 5796 5797 5797 5798 5799 5799 5800 5801 5801 5801 5801 5802 5802 5803 5803 5803 5804 5804 5804 5804 5804 5805 5806 5806
5810 5810 5810 5810 5811 5811 5811 5811 5812 5812 5812 5812 5811 5811 5811 5810 5810 5809 5809 5808 5808 5807 5807 5807 5807 5806 5805 5804 5804 5803 5801 5800 5799 5798 5798 5798 5797 5796 5795 5794 5794 5793 5792 5791 5792 5791 5790 5789 5790 5790 5790 5790 5790 5790 5790 5790 5790 5790 5790 5791 5792 5794 5794 5795 5796 5796 5797 5798 5798 5799 5799 5799 5800 5800 5801 5801 5801 5801 5802 5802 5802 5802 5803 5804 5804
5808 5809 5809 5809 5809 5809 5809 5810 5809 5810 5809 5809 5809 5809 5809 5809 5808 5808 5807 5807 5806 5806 5806 5805 5805 5804 5803 5802 5801 5800 5799 5798 5796 5795 5794 5795 5795 5793 5792 5791 5791 5790 5789 5788 5788 5788 5787 5786 5786 5787 5787 5787 5788 5788 5788 5788 5788 5788 5788 5789 5790 5791 5792 5793 5793 5794 5795 5796 5796 5797 5797 5797 5798 5798 5798 5798 5798 5799 5800 5800 5800 5800 5800 5801 5802
5806 5807 5807 5807 5807 5807 5807 5807 5807 5807 5807 5807 5807 5807 5807 5807 5806 5806 5806 5805 5805 5804 5804 5803 5803 5802 5801 5800 5798 5797 5796 5795 5794 5792 5791 5791 5791 5791 5790 5788 5787 5786 5785 5784 5784 5784 5784 5783 5783 5783 5784 5784 5785 5785 5784 5784 5785 5786 5786 5787 5788 5789 5790 5790 5791 5792 5793 5794 5794 5795 5795 5795 5795 5796 5796 5797 5797 5797 5798 5798 5798 5798 5799 5799 5800